Theta_e
354 354 354 354 353 352 352 352 353 353 354 352 351 349 347 346 348 347 347 347 346 346 350 348 346 346 347 347 349 345 346 347 347 348 349 350 353 357 360 359 357 357 357 357 358 357 357 356 356 356 355 355 355 355 355 355 355 355 355 355 355 355 354 354 353 352 353 352 352 352 351 351 350 350 351 351 352 351 351 351 351 351 352 352 352
354 354 354 353 353 352 352 351 352 352 353 350 352 349 347 346 346 347 348 346 346 347 348 347 348 348 345 344 348 346 347 347 347 348 349 352 353 358 361 360 359 357 358 357 358 358 357 357 357 357 356 355 355 355 355 355 355 355 355 355 355 355 355 354 353 353 353 352 352 351 351 351 351 352 352 352 352 352 352 352 352 352 352 352 352
355 354 351 352 352 352 351 350 351 352 353 350 353 349 348 346 348 347 346 346 347 348 348 346 344 345 347 344 346 346 347 347 347 348 350 351 353 353 357 361 360 358 357 357 357 358 358 357 358 357 356 356 355 355 355 355 355 355 354 355 355 355 354 354 353 353 353 353 352 352 351 351 352 352 352 352 352 352 352 352 352 352 352 352 352
355 353 352 352 351 352 350 350 352 353 355 352 352 351 349 349 350 349 350 349 348 346 346 343 343 345 344 342 344 346 346 347 347 348 350 351 351 350 352 358 360 359 358 357 358 358 358 357 357 357 357 356 355 355 355 355 355 355 354 355 355 354 354 354 354 354 353 353 353 353 352 352 352 352 352 352 352 352 352 352 353 353 353 353 353
354 354 359 352 352 351 351 355 354 354 354 354 354 350 351 351 348 353 347 345 345 345 349 345 344 345 345 341 343 346 347 347 347 348 350 351 351 350 351 356 355 359 359 358 358 358 358 358 357 357 357 357 357 357 355 355 355 355 355 355 355 355 355 355 355 355 354 354 353 353 354 353 353 353 353 353 353 353 353 353 354 353 352 352 353
355 354 356 352 352 351 351 352 354 354 354 353 350 349 348 347 347 348 354 349 343 343 344 344 342 342 340 340 343 346 346 346 346 347 349 351 352 351 351 353 353 353 355 359 358 358 358 358 357 357 357 357 357 357 356 357 356 356 355 355 355 355 355 355 355 355 354 354 354 354 354 353 353 353 353 353 353 352 352 351 351 353 353 351 351
355 354 355 352 352 350 351 352 354 354 353 352 350 349 347 345 349 345 345 347 346 347 347 343 342 339 339 343 344 345 346 346 346 347 348 350 352 352 353 352 351 351 354 353 358 360 360 358 358 357 358 358 357 357 357 357 357 356 356 356 355 355 355 355 354 354 354 354 354 354 353 353 353 353 353 352 352 352 352 351 351 352 351 351 351
354 354 354 352 352 351 351 352 354 356 355 353 353 350 348 347 350 346 343 344 347 346 344 339 342 340 339 340 344 347 344 344 345 347 349 350 351 352 352 353 352 350 358 351 352 356 359 358 358 358 358 358 358 357 356 356 357 357 356 356 355 355 355 355 355 354 354 354 354 354 353 353 353 352 352 352 352 351 352 352 351 352 351 351 352
353 354 353 352 352 353 352 353 356 354 354 354 354 354 351 351 351 355 345 342 346 345 340 339 338 337 338 340 342 346 343 344 345 345 350 348 350 350 351 350 353 360 354 352 351 352 357 360 358 358 358 358 358 358 358 357 357 354 354 352 353 352 353 353 353 354 353 354 354 354 353 353 353 351 352 352 351 351 351 351 351 351 351 352 352
352 354 353 353 353 353 353 354 356 353 353 354 354 353 352 353 351 352 351 345 343 340 339 339 339 337 339 341 340 341 341 342 346 353 346 347 348 349 351 352 354 354 354 352 352 351 351 356 359 358 359 358 358 358 358 357 355 353 352 353 353 352 353 353 353 354 354 351 352 352 352 354 352 351 351 351 351 351 351 351 352 352 352 352 352
353 355 353 355 354 354 353 355 355 353 355 352 350 352 352 350 348 346 350 348 343 341 338 338 337 337 338 339 339 339 340 342 348 345 344 347 348 351 352 350 352 352 351 351 351 350 350 349 349 350 353 358 358 359 357 355 355 355 354 354 355 354 354 355 355 354 352 352 352 352 352 351 352 351 351 352 352 351 351 352 352 352 352 352 352
354 355 354 355 354 354 353 355 353 353 354 351 348 350 351 349 347 346 343 348 348 343 339 338 335 336 339 336 337 338 338 345 344 342 345 345 348 350 349 348 350 350 351 351 352 351 351 350 353 350 351 354 358 358 357 357 355 356 356 356 356 355 355 355 354 353 353 353 353 352 353 352 352 352 351 352 351 351 351 351 351 351 352 352 352
356 355 353 359 356 354 352 353 353 354 354 353 352 350 350 349 350 353 345 343 342 339 334 334 333 330 332 332 335 340 345 346 341 342 343 343 345 349 347 349 347 349 349 349 349 350 350 349 350 350 351 350 353 357 358 357 356 356 356 356 355 355 355 354 354 354 354 354 353 353 352 352 352 352 352 351 351 351 351 351 351 351 351 352 351
358 355 355 355 354 352 352 353 352 353 353 352 350 356 355 351 348 345 347 342 339 342 335 330 328 326 328 327 331 330 341 341 339 340 342 342 345 346 345 348 348 348 346 347 347 348 348 349 348 350 348 349 348 347 349 352 354 357 356 355 355 356 356 356 355 354 354 354 354 353 353 352 352 352 352 352 351 351 351 350 350 351 350 349 348
356 357 355 355 354 352 351 351 351 355 353 350 351 351 349 350 347 346 343 343 345 345 335 329 327 329 328 328 322 324 332 330 335 338 341 341 343 344 346 346 347 347 346 346 346 345 347 347 347 346 347 346 346 347 350 356 353 358 357 356 355 355 355 355 354 355 355 355 354 354 353 353 352 352 352 351 350 351 351 351 350 348 347 346 345
355 356 355 355 353 352 351 350 351 354 354 351 350 350 348 347 347 347 342 339 337 339 341 334 332 328 324 323 321 322 319 323 327 332 339 340 342 342 344 344 344 343 343 345 346 345 344 345 346 347 346 346 346 346 350 346 354 358 357 355 355 354 354 355 354 354 355 355 353 353 353 353 352 352 351 351 351 351 350 349 347 346 343 344 344
354 356 355 354 353 352 350 350 351 353 355 352 351 351 351 349 350 347 343 339 337 337 341 336 333 332 329 324 320 319 318 320 327 328 334 335 337 340 344 341 341 343 344 344 343 345 345 345 344 345 346 346 346 347 349 350 350 354 355 356 356 355 354 354 354 353 354 354 353 353 352 352 352 352 351 350 350 350 349 347 347 345 344 343 344
354 354 356 355 354 352 351 351 351 354 355 353 352 349 350 350 351 349 346 341 339 337 335 344 336 339 333 327 324 321 321 323 325 321 333 338 335 337 339 340 339 343 342 342 343 345 347 346 345 347 347 347 347 346 347 346 350 347 347 347 355 355 354 354 354 352 352 353 353 353 352 352 351 351 350 350 350 349 347 346 345 345 343 343 343
354 353 355 356 355 354 352 352 353 354 357 352 351 351 351 351 353 349 348 349 340 336 334 334 334 337 341 338 342 337 330 326 322 320 322 326 331 333 334 336 338 340 341 342 344 344 345 347 347 347 347 348 346 346 346 347 353 353 356 356 355 355 355 355 354 354 352 352 352 352 352 352 351 350 350 349 348 345 345 345 344 344 343 343 343
354 353 354 355 356 355 354 353 353 355 357 354 353 353 353 352 354 353 349 347 344 341 336 331 332 332 337 336 341 338 332 331 327 327 323 321 323 330 332 333 334 337 340 341 342 343 343 344 346 346 346 346 345 345 345 345 343 345 352 354 355 354 355 354 354 351 351 352 353 353 353 352 351 349 350 349 346 345 344 344 345 344 344 345 345
354 354 354 354 357 356 354 353 354 355 359 356 354 354 353 352 352 351 350 349 345 343 337 332 329 329 331 330 332 332 332 334 332 330 325 321 321 323 325 329 332 331 333 338 340 341 343 343 345 348 348 347 346 345 345 345 344 343 352 354 354 354 354 353 351 350 350 351 352 351 350 349 349 348 347 343 343 345 346 346 345 346 347 347 347
353 354 354 354 355 357 356 355 354 356 359 356 355 355 354 353 353 352 352 351 347 346 342 336 332 328 330 331 330 329 329 328 329 328 327 325 323 323 324 325 325 328 332 333 336 339 340 341 343 347 346 346 345 345 344 345 345 346 349 354 354 354 354 352 352 350 349 348 348 348 348 347 347 346 345 342 342 345 347 348 348 349 348 348 348
353 353 354 354 355 357 357 356 356 358 359 356 356 356 355 355 354 352 351 350 349 345 347 342 335 332 329 329 330 330 328 327 326 328 326 323 323 324 325 326 327 325 329 333 336 337 338 338 339 343 345 344 344 344 344 344 349 349 351 353 354 355 354 353 351 350 349 349 345 345 345 345 345 344 344 344 346 348 350 350 350 348 348 348 348
352 352 353 354 354 355 358 357 357 356 357 358 357 357 357 355 353 352 351 350 348 348 345 343 337 334 331 330 330 332 330 330 329 330 329 326 327 324 325 324 327 327 330 331 334 335 335 336 337 340 343 343 343 344 344 345 346 351 351 352 354 354 353 353 352 351 350 349 347 346 346 346 346 346 346 348 350 350 350 349 348 348 349 350 349
350 351 352 353 354 354 355 356 356 357 357 357 357 357 356 355 353 352 351 349 348 347 345 344 342 338 337 333 330 332 332 331 332 330 330 329 328 324 326 326 324 324 328 330 330 333 335 335 336 338 340 341 341 342 342 343 342 347 353 351 353 352 352 352 350 348 348 348 348 347 347 348 350 350 349 349 350 352 351 351 351 351 349 347 346
349 350 352 353 354 354 356 356 357 357 358 357 358 357 357 356 354 353 352 352 349 347 346 346 344 342 339 335 333 331 334 336 334 331 330 329 325 326 325 329 325 325 325 327 328 329 330 334 336 336 337 338 339 340 340 340 341 347 351 349 348 350 350 350 350 348 346 346 347 347 346 347 350 350 349 348 350 349 349 349 348 347 346 347 348
350 351 352 353 353 354 355 356 356 356 357 357 358 357 357 356 355 354 354 352 350 349 347 346 345 343 339 336 337 333 333 335 336 334 333 332 330 328 327 324 324 324 325 326 326 327 329 331 335 335 335 337 337 338 338 337 342 345 349 350 341 346 348 347 348 347 345 344 345 346 346 346 347 348 348 348 349 348 348 348 347 348 349 348 347
350 351 352 353 353 353 355 356 356 357 357 357 357 357 356 355 354 354 352 354 350 349 348 346 346 345 343 339 336 336 335 334 336 336 334 335 333 331 330 327 324 321 319 322 323 326 329 328 331 334 335 336 336 337 341 341 338 345 349 345 337 336 344 345 346 346 344 342 342 344 344 344 345 345 346 347 348 347 347 348 349 349 348 347 347
349 352 351 352 353 353 353 355 356 356 356 357 357 356 356 355 355 353 352 352 351 349 349 347 346 346 344 341 339 337 335 335 335 337 336 335 335 332 332 330 327 322 318 318 321 323 327 330 328 330 334 335 336 336 338 338 340 342 339 341 337 331 336 341 343 343 343 341 338 338 340 341 342 343 344 345 347 348 349 348 349 348 348 347 347
350 352 352 352 352 356 353 354 355 356 356 357 357 356 355 355 355 354 354 353 351 350 349 349 347 346 346 344 340 338 338 336 335 336 335 335 334 333 332 331 330 327 323 321 322 324 325 327 330 328 330 333 335 336 336 337 344 344 338 339 338 332 335 336 339 339 339 339 337 335 336 337 339 341 342 344 345 346 347 347 348 347 347 346 345
350 351 351 351 352 352 353 353 354 355 356 356 356 356 356 354 354 354 353 352 351 350 349 349 349 347 346 345 342 340 339 337 337 336 337 335 333 333 332 332 331 330 327 324 320 324 328 328 329 332 331 332 334 335 337 337 341 344 340 339 341 340 339 336 337 337 337 337 336 336 336 336 336 337 339 341 343 344 345 345 345 346 346 345 344
350 351 351 351 352 351 352 352 353 354 355 356 356 356 356 355 355 354 353 352 351 350 350 350 350 348 346 345 344 342 340 338 337 337 336 337 335 333 333 332 331 330 329 326 324 326 327 328 329 330 332 332 333 333 334 337 340 347 341 339 341 345 341 335 338 338 337 336 336 336 335 335 334 335 337 339 341 342 343 345 344 345 344 343 342
351 350 351 351 352 352 352 352 352 353 353 354 355 355 355 354 355 354 354 352 351 351 350 349 350 349 348 346 346 345 342 339 338 338 337 337 336 335 334 332 331 331 329 327 325 326 327 329 330 331 333 333 331 333 333 334 335 338 344 340 340 340 339 337 335 338 337 335 335 335 335 334 334 335 336 338 339 341 342 342 342 341 340 340 341
351 351 351 352 352 352 352 351 352 352 353 353 354 355 354 354 354 355 354 353 351 351 350 349 349 350 349 347 347 347 345 342 340 338 338 337 337 336 335 334 332 331 331 329 327 325 326 326 330 332 332 333 332 333 333 333 334 336 336 338 340 340 339 337 336 336 338 337 336 334 334 334 334 334 335 336 338 339 340 340 340 337 338 339 339
350 352 352 352 352 352 352 352 351 352 352 352 353 354 354 353 353 354 354 353 352 351 350 349 349 349 349 348 348 348 347 343 342 341 340 337 337 336 336 336 334 333 332 332 329 327 327 328 328 330 332 332 332 332 334 335 336 335 335 336 338 339 339 338 337 337 338 337 336 336 335 334 334 334 334 334 336 337 337 336 336 335 335 335 334
349 351 352 353 353 352 352 351 351 352 352 353 353 353 353 353 353 353 353 353 353 352 352 351 350 349 349 348 348 348 347 345 344 343 342 339 337 337 336 335 335 335 334 333 332 330 328 328 328 330 332 331 332 333 333 335 334 334 334 336 337 337 337 338 337 337 338 337 336 335 336 335 334 333 332 333 333 332 333 333 333 332 330 332 332
351 350 351 352 352 352 352 352 351 351 352 352 352 353 353 354 353 353 353 353 353 353 353 352 353 350 349 349 349 349 347 345 345 344 343 340 339 338 337 336 335 336 336 335 333 331 329 328 329 329 331 331 332 331 332 332 332 332 332 333 334 335 335 337 338 339 339 336 336 336 335 334 334 333 333 332 331 330 330 331 330 329 329 328 326
351 352 351 351 352 352 352 353 352 352 352 352 352 352 353 353 353 353 353 352 353 353 353 353 352 352 351 350 350 349 348 346 346 346 344 342 341 338 337 337 336 335 335 334 334 333 331 330 330 330 327 331 330 331 331 333 331 330 331 332 332 332 332 333 335 338 338 338 336 337 336 335 334 333 333 332 330 329 328 329 330 328 326 324 321
351 351 352 351 352 352 352 352 352 352 352 352 352 352 352 352 352 352 352 352 352 352 352 353 353 352 352 352 351 350 349 348 347 346 345 343 342 340 339 338 337 335 335 334 334 333 332 331 331 330 330 330 331 331 330 332 332 332 330 329 329 332 331 331 332 335 337 337 337 337 337 337 336 334 330 328 329 329 328 327 327 326 324 322 320
349 350 351 352 353 353 353 353 353 353 352 352 352 352 352 352 352 352 352 352 352 352 352 352 353 353 353 353 352 352 351 350 349 348 346 345 343 341 341 340 338 336 335 335 333 333 333 332 332 332 330 330 327 329 329 328 327 329 331 330 328 329 330 331 331 332 333 335 335 335 336 335 335 334 331 330 330 329 327 327 329 328 325 322 321
350 350 350 351 352 353 353 353 353 354 353 352 352 352 352 352 352 352 352 352 352 351 351 352 352 352 353 353 353 353 353 349 342 342 343 341 345 342 342 340 339 337 336 335 334 333 332 332 332 332 331 329 329 329 329 328 328 330 330 331 330 331 331 330 331 332 333 332 334 334 334 335 334 334 334 332 332 331 330 330 330 331 327 322 321
350 350 349 349 349 350 351 352 352 353 353 354 346 335 338 352 352 353 352 352 352 352 351 351 351 352 352 353 354 348 341 339 337 336 335 334 335 343 345 341 340 338 337 336 335 334 333 332 332 332 331 331 331 330 331 332 332 332 328 329 329 331 326 329 330 331 333 332 331 331 333 336 335 334 333 333 334 337 332 330 329 329 328 324 323
350 349 350 348 348 348 348 349 350 352 352 352 337 331 331 334 349 353 352 352 352 352 352 351 351 351 352 353 353 352 344 339 341 334 334 333 332 333 335 338 338 341 339 337 336 335 334 333 333 332 332 331 332 333 332 333 333 332 331 330 329 329 328 326 326 330 335 334 331 330 331 334 335 333 333 333 334 333 334 331 329 329 326 325 325
349 350 349 348 348 348 348 348 348 350 351 338 332 330 330 329 333 352 353 353 352 352 352 352 352 352 352 352 353 353 353 353 351 348 338 331 329 330 330 331 333 333 335 340 339 337 335 334 333 333 333 332 333 334 333 333 333 333 332 331 329 328 328 327 327 327 330 336 332 330 330 332 334 334 333 334 334 334 334 332 329 326 325 326 325
350 349 348 348 348 348 348 347 347 349 350 337 331 328 328 328 328 335 352 353 352 352 352 352 352 353 352 352 352 353 354 344 348 351 351 347 331 327 328 330 330 330 330 330 333 342 341 337 335 335 335 335 334 335 336 335 336 333 332 330 330 329 329 328 329 329 329 335 333 330 329 332 333 334 332 334 335 334 334 331 329 328 326 326 325
349 348 348 348 348 348 348 347 347 348 349 337 330 326 326 326 326 329 347 351 352 352 352 352 353 353 353 352 352 352 353 353 352 351 351 351 350 345 338 337 339 338 329 327 327 328 338 342 340 337 339 338 336 337 339 338 335 334 333 332 332 331 330 330 332 332 331 337 333 330 328 329 332 332 332 334 335 334 333 331 329 328 326 325 324
348 348 348 348 348 349 348 349 348 348 349 335 328 325 323 322 324 326 343 348 350 351 352 353 353 353 353 353 353 352 352 352 353 351 351 351 350 350 348 345 343 343 343 342 339 337 336 338 341 342 342 342 341 340 340 340 338 338 337 335 335 334 334 334 333 330 331 337 335 332 327 330 332 331 332 334 334 333 333 329 329 328 326 324 324
350 349 349 349 348 348 349 349 348 347 349 333 327 324 322 321 323 334 341 345 348 350 351 352 352 353 353 353 353 352 353 352 344 333 339 351 351 349 349 349 348 348 346 337 335 337 341 342 341 342 343 344 338 344 343 341 340 339 340 340 337 334 332 331 329 331 331 335 337 333 329 329 332 332 332 335 333 331 331 330 327 327 326 324 324
349 348 348 348 348 348 348 348 348 348 349 338 326 322 321 320 322 337 341 344 347 348 350 351 352 353 353 353 353 353 353 352 341 331 329 334 350 350 349 349 349 349 349 350 334 329 329 329 329 331 331 331 331 329 327 329 336 338 337 335 333 334 331 329 330 330 329 332 336 336 332 330 330 331 331 332 331 332 330 328 328 325 325 323 323
349 349 349 348 348 349 348 348 348 348 348 341 325 320 319 319 325 340 342 344 345 347 348 350 352 352 353 345 353 353 352 353 336 329 328 332 346 349 349 348 348 348 349 351 350 343 327 326 327 328 328 329 328 328 328 327 325 329 337 333 336 335 332 331 329 331 332 332 335 338 333 331 331 331 331 326 327 327 330 329 328 326 324 322 320
350 350 350 349 348 349 349 348 344 346 349 342 324 321 318 317 325 341 344 345 345 346 347 348 350 351 352 349 343 341 346 345 332 328 325 330 346 348 349 349 348 347 349 351 350 350 347 340 337 336 336 331 336 335 336 328 328 334 335 338 339 336 333 333 332 331 328 330 334 339 332 332 331 329 330 319 322 324 325 328 327 325 324 325 323
Wind_Speed
3 4 4 3 2 2 2 3 2 2 2 2 1 1 0 0 0 0 0 1 1 1 1 2 1 2 2 2 3 3 4 4 5 4 4 4 4 5 10 9 9 9 9 9 8 8 8 8 7 7 7 6 6 6 6 5 5 5 5 5 5 5 4 4 3 3 3 2 2 2 1 1 1 0 1 2 3 4 5 5 5 6 6 7 7
4 3 4 4 3 2 2 3 3 2 2 3 2 3 2 1 1 0 0 1 2 1 2 3 3 3 1 2 3 4 5 5 5 4 4 4 4 4 11 9 9 8 9 8 9 8 8 8 8 8 8 7 7 6 6 6 5 5 5 5 5 5 5 4 4 3 3 3 2 2 2 1 1 1 2 3 3 4 4 5 5 6 6 7 8
5 4 3 3 3 3 3 2 2 3 2 2 1 2 2 3 2 1 0 1 2 1 2 3 1 3 2 2 4 4 4 4 5 4 4 4 4 2 5 10 9 9 8 8 8 8 8 7 7 8 8 8 7 7 7 6 6 5 5 5 5 5 5 5 4 4 3 3 3 3 2 3 3 3 3 3 4 4 5 5 6 7 7 8 8
5 4 4 4 4 3 2 3 3 2 2 2 2 1 2 2 1 0 0 1 1 2 1 1 1 3 3 1 3 4 4 5 5 5 4 4 4 2 2 4 9 9 8 8 8 8 7 7 7 7 7 8 8 8 8 7 7 7 6 6 6 5 5 5 5 5 4 4 4 4 4 4 4 4 4 5 5 6 6 6 7 7 8 8 8
5 5 5 5 4 4 3 3 3 2 2 2 2 1 0 1 1 1 2 2 2 3 2 2 1 3 4 0 3 3 3 4 5 5 4 4 4 3 2 1 1 7 9 8 8 7 7 7 7 8 7 7 8 8 8 8 8 8 7 7 7 6 6 6 6 6 5 5 5 5 5 5 5 5 5 5 6 6 7 7 6 8 8 9 9
5 5 4 4 4 4 4 4 3 2 2 2 2 1 0 1 2 2 3 2 2 2 2 3 4 0 0 2 3 4 4 4 4 4 4 4 4 3 3 1 2 1 2 8 7 7 7 7 8 8 7 7 7 8 8 8 8 8 8 8 7 7 7 7 7 7 6 6 6 6 6 6 6 6 6 6 6 6 9 9 9 7 7 7 8
5 5 5 4 4 4 4 4 3 2 3 3 2 1 0 2 1 1 2 3 2 2 2 1 3 1 2 3 4 4 3 3 3 4 4 4 4 3 3 3 2 2 2 1 6 6 6 7 8 7 7 8 8 8 9 9 9 9 9 9 9 8 8 8 7 7 7 7 7 7 7 7 8 7 5 7 6 5 6 6 8 8 8 7 7
5 5 5 5 4 4 5 3 3 2 4 2 2 2 2 2 3 1 1 2 2 4 2 3 1 0 3 2 3 3 4 4 3 3 3 4 4 3 3 3 2 2 4 2 2 3 6 8 8 8 7 8 8 8 9 10 11 10 10 10 10 9 9 8 8 8 8 8 8 8 7 6 6 7 4 5 4 5 6 7 7 8 8 7 8
6 6 5 5 4 4 4 4 3 4 3 3 3 3 3 3 3 3 2 2 1 2 2 1 1 2 3 3 2 3 4 3 3 3 3 3 3 3 2 2 3 5 3 3 2 2 3 5 7 8 7 7 7 8 9 10 9 7 7 8 11 9 7 9 9 9 8 8 8 8 8 7 6 5 5 6 5 5 5 5 6 7 7 7 8
6 5 5 5 4 4 3 3 3 3 3 3 4 3 4 3 3 2 3 2 1 2 2 2 2 3 3 3 3 3 2 3 2 2 4 3 3 3 4 3 3 3 3 3 3 2 2 4 7 7 7 7 7 8 8 8 8 6 7 8 7 7 9 9 8 9 8 10 9 9 9 8 5 2 2 5 4 5 5 5 5 6 7 7 8
6 6 5 5 4 4 3 3 3 4 3 3 3 3 2 3 3 2 1 2 2 1 3 3 3 3 3 3 3 2 1 1 1 3 3 3 3 3 2 3 3 3 2 2 3 3 3 2 2 1 2 6 8 8 9 7 7 6 8 8 9 8 9 9 9 7 6 8 7 6 7 8 5 5 5 5 5 5 5 5 6 7 7 8 8
6 6 5 5 5 4 4 3 3 4 4 3 3 3 3 2 2 1 1 2 3 3 3 5 4 4 2 2 1 0 0 0 1 2 2 2 3 3 4 2 3 3 3 3 3 3 3 3 3 4 3 3 5 7 8 7 8 8 8 8 8 9 9 9 6 8 6 6 5 6 6 6 7 6 6 4 5 5 5 6 6 6 7 7 7
6 6 6 5 5 4 4 3 3 4 4 5 4 4 3 3 2 1 0 1 1 2 2 4 6 4 4 3 2 1 0 1 2 2 2 2 2 3 2 2 3 3 3 3 3 3 3 3 3 3 3 3 3 5 7 7 7 7 8 8 8 9 9 9 9 9 8 7 7 7 7 7 6 6 6 5 4 4 4 4 5 5 5 5 6
6 6 6 6 5 5 5 5 5 5 4 3 3 2 2 1 2 1 2 1 1 0 3 3 2 4 4 0 1 2 0 1 2 2 2 2 3 3 3 3 4 4 2 3 3 3 3 3 3 3 3 3 2 2 3 3 3 4 4 6 7 8 8 8 8 8 8 8 7 7 7 6 5 5 5 5 3 3 3 3 3 2 3 3 3
6 6 6 6 6 6 5 5 5 4 3 3 2 2 2 3 3 4 1 1 0 0 3 1 3 2 2 4 0 1 2 1 1 3 3 3 2 3 3 4 4 4 3 3 3 3 2 2 2 3 3 2 2 2 3 4 4 7 6 4 4 6 6 7 6 6 7 6 7 6 6 6 5 5 4 4 3 3 3 3 0 0 1 1 2
6 6 5 6 6 6 5 5 5 4 5 4 3 3 2 2 2 2 2 1 0 0 2 2 4 6 2 1 2 3 0 3 4 2 3 5 4 4 3 4 4 3 2 4 4 3 2 2 3 3 3 3 3 3 4 3 6 8 9 7 5 3 4 6 6 6 7 7 6 6 5 4 4 4 4 4 4 4 3 2 2 2 1 1 1
6 6 6 6 5 5 5 5 5 4 4 4 5 5 5 4 3 3 3 3 2 1 0 2 4 3 7 3 2 0 3 4 1 2 0 3 4 4 3 4 4 4 4 4 2 3 2 2 3 3 3 3 3 3 3 3 3 3 4 7 6 4 4 5 6 5 6 6 5 5 4 4 5 5 4 4 4 3 3 3 3 2 1 1 2
6 6 6 5 6 6 5 5 5 5 5 5 4 3 4 4 4 4 3 2 2 1 0 0 4 3 3 4 6 3 3 2 2 2 1 1 2 4 4 4 3 4 4 3 4 4 2 4 3 4 3 3 3 3 3 3 3 3 3 4 7 4 4 5 6 6 6 6 6 5 5 6 6 6 6 5 5 4 4 4 3 3 2 3 3
6 6 5 5 5 5 5 5 5 5 4 4 4 5 5 5 3 3 4 3 2 2 3 2 1 2 3 2 0 0 6 5 4 2 1 2 1 1 3 3 3 4 5 5 4 4 4 3 4 4 4 3 3 3 3 3 5 5 7 7 7 5 4 4 5 8 7 6 6 5 6 7 7 7 6 6 6 5 4 4 4 4 4 4 4
7 6 6 5 5 5 5 5 5 5 5 5 6 4 4 2 3 4 2 3 4 4 4 2 5 3 1 1 0 1 1 1 4 6 4 3 2 1 0 1 2 4 4 5 5 6 5 4 5 4 4 4 3 3 3 3 3 3 4 8 7 7 5 5 6 7 7 6 6 7 8 8 7 7 7 7 7 6 5 5 5 5 6 5 5
6 6 6 6 6 6 5 5 5 5 5 5 4 4 5 5 4 4 4 3 4 3 3 4 3 4 2 0 1 1 1 1 1 3 3 2 1 2 2 1 0 3 5 4 4 3 5 6 5 4 4 4 4 4 4 3 4 3 5 8 9 9 7 6 6 6 7 7 7 8 8 7 7 7 7 7 7 7 6 6 6 6 6 7 7
6 6 6 6 6 6 6 6 6 5 5 5 4 4 4 4 5 5 5 5 4 4 5 4 5 4 3 4 3 1 1 1 0 2 2 2 5 5 5 5 5 6 4 5 5 5 5 5 5 4 5 5 4 4 3 4 4 4 6 10 11 10 9 8 7 8 8 8 8 8 8 7 7 8 8 8 7 7 7 7 7 8 8 8 8
6 6 7 7 7 6 6 7 6 5 5 4 5 5 5 5 5 4 4 5 5 5 4 3 4 5 3 5 6 6 6 4 5 3 3 2 1 2 2 5 7 4 5 6 5 5 5 5 5 6 5 5 5 4 5 5 5 6 9 9 10 10 9 9 8 10 10 8 9 8 8 8 9 9 9 8 8 8 9 9 9 9 9 9 9
6 6 7 7 7 6 6 6 6 6 6 5 5 5 5 4 4 5 5 5 4 4 4 4 4 5 4 5 6 5 4 4 5 6 6 5 6 5 5 2 2 4 3 2 3 4 5 6 6 6 6 5 5 5 5 5 6 11 8 9 10 11 10 10 10 10 10 9 9 9 10 10 10 10 10 10 10 10 10 10 9 9 9 9 9
7 8 8 9 7 7 6 6 6 6 6 5 5 5 5 5 5 5 5 5 6 5 5 6 6 6 6 5 5 5 6 4 4 6 3 4 5 3 4 2 4 3 4 2 4 4 6 6 6 6 6 6 6 6 6 6 6 9 11 7 12 11 12 12 11 12 12 11 10 10 9 9 9 9 8 8 7 6 6 8 8 8 9 10 10
9 10 9 9 8 8 7 7 6 6 6 6 6 5 5 6 6 6 6 6 5 6 6 6 5 6 4 5 5 6 6 4 4 4 5 4 3 5 3 0 0 3 1 1 1 1 4 6 6 6 6 6 6 6 6 7 6 10 13 8 9 12 12 12 13 13 13 13 13 12 12 11 10 9 9 9 7 7 7 7 9 10 10 10 9
9 9 7 8 9 8 7 7 7 6 6 6 6 6 5 5 5 6 6 5 6 6 6 6 6 6 4 5 5 5 6 5 5 6 5 6 6 5 5 3 2 1 2 1 2 4 5 3 7 6 7 6 6 6 7 6 8 10 12 8 6 11 13 13 13 14 14 14 14 14 14 14 12 12 12 11 9 9 9 8 9 10 9 8 8
7 6 8 9 9 8 7 8 7 7 7 7 7 6 6 6 6 6 6 4 6 6 7 6 7 7 7 5 3 6 5 5 5 5 6 6 6 4 5 4 5 5 1 3 2 5 3 4 2 6 7 7 7 7 7 8 7 11 12 7 7 7 12 14 14 14 14 14 14 14 15 14 14 14 14 12 11 10 10 9 9 9 9 9 8
7 7 8 8 8 8 8 8 7 7 7 7 7 7 6 7 7 6 7 5 6 7 6 7 7 6 5 6 7 6 5 4 4 5 5 4 5 5 5 7 6 5 3 3 4 5 4 6 4 4 8 8 7 6 6 7 9 10 7 8 8 7 10 14 15 14 14 15 14 14 14 14 14 14 14 13 11 11 10 10 9 9 9 8 7
8 7 8 9 8 8 8 8 8 7 8 7 7 7 7 7 7 7 6 5 6 5 6 6 7 5 5 5 5 6 5 4 6 5 5 5 5 5 5 5 5 7 6 6 7 5 5 3 5 5 3 8 7 7 7 8 10 11 8 8 8 8 13 14 15 15 15 15 15 14 14 14 14 14 13 13 13 12 12 11 10 9 9 8 7
7 7 8 8 8 8 8 8 8 8 8 8 8 7 7 7 7 7 6 5 6 6 6 6 6 5 6 6 5 6 5 5 5 5 4 4 5 5 5 5 5 5 6 5 4 5 5 6 6 6 5 7 7 8 7 7 8 11 9 9 9 12 15 12 14 15 15 16 15 14 14 14 14 14 13 12 12 12 12 11 10 10 9 8 7
8 8 8 9 9 9 9 9 9 8 8 9 8 8 7 8 7 7 6 6 7 8 6 6 5 6 6 7 7 7 6 4 5 5 5 4 4 5 5 6 6 6 5 5 7 11 5 6 6 5 6 6 5 7 8 7 7 12 9 9 9 10 9 8 12 15 16 16 16 15 15 15 15 15 14 13 13 13 12 11 11 10 9 8 7
8 8 9 10 10 10 10 9 10 9 9 9 8 7 8 8 8 8 6 7 8 8 6 7 6 6 7 8 8 7 5 5 6 6 5 5 4 5 4 5 6 4 5 6 7 10 5 4 4 5 3 3 3 6 8 7 6 7 9 9 8 8 8 8 8 13 16 16 16 16 16 15 16 15 15 14 14 14 13 13 12 11 10 9 8
8 10 11 10 9 10 10 10 10 10 9 10 8 8 9 9 9 7 7 8 8 8 6 8 7 7 7 7 8 7 6 7 6 6 6 5 5 5 5 5 6 6 6 6 8 6 12 2 4 3 4 3 6 3 8 8 8 5 8 8 7 8 8 8 8 8 14 16 16 17 16 16 16 16 16 15 14 14 14 13 12 12 11 10 9
8 9 10 10 10 9 10 10 10 10 10 10 9 9 9 10 10 9 8 8 9 9 9 10 9 7 7 8 9 7 5 6 7 7 5 6 5 6 6 5 6 6 6 7 6 8 10 9 4 4 4 3 7 6 6 7 7 6 8 8 9 7 7 8 8 8 12 15 16 17 17 17 16 16 16 15 14 14 14 14 13 12 12 10 10
9 9 9 9 9 9 10 11 10 11 11 10 10 10 11 10 10 10 9 9 9 9 10 10 9 8 9 9 10 8 6 7 8 8 7 5 6 6 6 6 7 7 6 6 8 9 7 8 5 6 4 4 6 5 3 3 5 5 7 6 4 6 7 7 8 8 10 15 16 16 16 16 17 16 16 15 14 14 14 13 13 12 11 10 10
10 9 8 8 9 9 11 12 12 11 12 11 11 11 10 10 10 10 9 9 10 10 10 10 8 9 9 10 10 7 6 8 9 8 8 8 8 7 8 7 8 7 6 7 9 8 8 10 8 4 3 4 4 3 3 4 5 5 4 6 7 7 7 7 6 8 11 14 15 16 16 16 16 17 17 15 15 15 14 14 13 12 11 11 12
11 10 10 9 9 11 12 12 12 12 11 11 11 11 11 10 9 10 10 10 10 10 10 10 9 9 10 10 10 8 8 10 11 9 8 9 8 7 8 8 8 7 8 8 7 8 8 10 8 8 3 6 4 5 5 6 6 6 6 6 5 6 6 7 8 7 6 7 6 8 11 12 15 17 16 15 16 15 15 14 14 13 13 13 13
12 11 11 11 11 11 12 12 12 12 11 11 11 11 11 10 10 11 11 11 10 10 9 10 10 10 10 10 10 10 11 11 11 10 9 8 8 9 10 10 8 8 9 8 8 8 9 9 9 8 8 5 5 8 4 5 5 6 7 7 9 8 6 9 10 7 6 8 9 13 12 11 13 13 15 17 16 16 15 15 14 14 14 14 14
12 12 12 12 12 11 12 12 12 11 10 10 11 11 10 11 11 11 11 11 11 10 10 10 9 10 10 11 11 11 12 11 11 10 8 9 7 8 9 8 8 8 9 9 7 8 8 9 10 10 7 7 3 4 1 2 3 6 8 8 11 10 9 8 10 10 8 7 8 8 9 11 11 13 14 15 16 16 16 14 15 15 16 16 16
11 12 12 12 12 12 12 12 12 11 10 11 10 10 11 12 11 12 12 12 11 11 11 10 10 10 10 11 11 11 12 14 15 13 12 10 8 9 9 8 9 9 9 8 8 7 8 9 10 8 8 7 6 5 6 7 10 13 5 7 10 10 7 6 9 8 8 8 8 7 8 9 9 9 8 7 9 11 12 14 11 16 17 16 16
12 11 11 12 12 13 13 12 11 10 11 10 13 17 15 12 11 11 10 11 11 11 10 10 10 11 11 11 11 15 15 16 16 16 16 15 15 13 10 8 10 10 10 10 9 8 8 9 10 10 10 11 9 8 10 11 9 7 6 7 10 11 4 7 8 7 8 8 9 9 9 7 8 8 7 9 8 8 7 8 9 10 14 17 17
13 12 12 13 13 13 14 13 13 11 11 11 17 16 17 19 13 11 11 11 10 10 11 11 11 11 11 11 11 12 13 13 14 17 16 17 17 18 19 17 14 12 11 11 11 9 9 10 10 9 10 12 11 10 11 11 8 10 11 8 9 6 8 10 13 8 6 11 10 9 10 7 7 10 9 9 9 7 8 9 13 16 16 18 18
13 12 12 13 13 13 12 13 13 13 12 15 17 17 17 18 17 13 11 10 10 10 10 11 11 10 11 11 10 9 10 12 11 11 14 17 18 18 20 20 20 19 18 15 12 10 10 11 11 11 10 12 13 10 10 9 12 10 9 9 9 10 11 11 11 13 4 9 10 9 11 6 7 10 10 10 9 8 10 12 16 17 17 18 18
11 12 14 13 14 13 13 14 14 13 12 15 17 17 17 18 19 16 11 10 10 10 10 11 11 11 10 10 10 9 10 14 12 11 11 11 15 19 20 21 22 21 20 21 20 16 10 11 13 13 12 12 13 13 12 13 10 10 8 10 10 11 12 13 13 12 7 8 5 6 10 9 7 9 11 10 9 8 9 13 17 18 18 18 18
13 14 13 14 14 13 14 14 13 12 13 15 17 17 17 18 17 15 12 12 11 11 11 11 11 11 11 11 10 11 10 10 9 10 11 11 10 10 12 13 15 18 20 22 20 20 17 14 13 15 15 12 15 14 13 10 10 12 11 13 12 12 13 16 17 14 1 8 9 5 8 6 7 8 11 10 8 9 9 12 17 17 18 18 18
14 14 14 14 14 14 14 13 12 13 13 17 16 17 17 18 16 13 10 10 11 12 12 12 12 12 11 11 12 12 12 10 9 11 11 11 11 11 12 13 15 15 15 15 14 13 14 14 16 19 18 15 16 16 13 10 14 14 14 15 15 15 14 11 8 4 5 7 8 7 13 8 7 9 11 9 8 9 8 11 17 18 18 18 18
12 12 12 13 14 14 14 13 13 14 13 17 17 17 17 17 16 10 10 11 12 13 13 12 12 11 11 12 12 12 12 11 12 16 15 11 11 12 13 14 15 14 14 14 15 16 16 15 16 19 19 18 18 18 15 13 12 12 11 11 8 8 10 11 13 7 9 6 10 11 11 11 9 11 11 9 7 9 8 8 14 19 18 18 19
13 13 14 13 13 13 14 14 15 14 13 15 17 17 17 17 13 9 10 10 12 13 14 13 12 12 12 12 12 12 12 11 13 16 17 16 12 13 13 14 15 15 15 8 15 21 21 22 26 27 27 26 24 22 20 20 16 13 9 10 14 11 12 14 14 10 6 5 10 14 14 14 10 11 11 9 10 11 9 10 9 15 19 19 19
14 14 13 12 12 13 14 15 14 13 13 14 16 16 17 18 16 12 10 11 13 13 13 12 11 11 14 18 16 13 12 12 14 17 17 15 13 13 13 15 18 17 15 10 8 11 20 24 27 27 25 24 24 24 24 21 19 15 14 17 19 10 14 14 15 7 2 9 15 15 12 16 9 10 11 3 4 6 9 9 10 11 17 16 20
13 12 11 11 12 12 13 14 15 15 13 12 16 17 18 18 16 10 10 10 12 13 11 11 11 11 12 13 17 16 15 15 17 16 18 16 13 13 13 14 18 19 17 11 10 12 9 10 13 13 16 20 19 17 19 24 26 20 17 19 15 10 13 15 14 9 11 15 17 16 14 13 10 10 10 3 7 5 5 8 10 10 9 9 10
Wind_Direction
180 184 169 192 188 183 188 205 194 189 179 223 177 179 25 291 198 164 325 342 38 64 83 56 341 277 234 198 178 171 154 151 152 156 157 164 170 204 195 196 196 188 185 179 177 175 176 173 168 162 161 161 159 156 153 150 144 142 142 146 144 148 150 154 159 159 159 171 161 173 180 203 202 261 306 316 327 333 338 338 341 340 338 338 338
183 183 175 190 186 187 190 210 206 196 198 204 193 159 198 237 269 269 32 13 43 353 53 53 9 329 302 173 182 171 156 155 154 154 165 165 168 206 196 195 200 193 190 189 183 183 182 184 178 173 171 172 172 170 165 165 163 159 161 163 166 165 169 170 181 180 178 189 206 212 222 231 249 250 268 294 307 314 323 325 327 328 329 334 333
179 178 191 182 182 182 204 205 224 218 204 229 194 194 196 225 229 216 106 38 44 19 32 63 16 289 300 176 170 154 151 148 143 146 168 167 161 191 209 194 199 196 195 194 194 192 193 194 194 186 182 181 184 183 183 179 179 179 178 182 180 179 181 185 194 201 203 208 221 235 248 255 252 259 278 286 292 300 307 316 322 325 328 326 332
179 174 182 183 182 186 195 191 226 227 204 210 205 192 206 237 262 316 154 70 40 26 10 59 146 281 295 173 155 151 156 154 144 157 158 154 153 174 230 205 200 198 202 197 198 198 198 198 208 209 198 194 194 195 195 195 195 197 196 197 199 197 197 203 207 219 222 227 231 241 250 258 267 280 289 297 303 308 310 315 318 320 323 325 328
184 179 180 187 180 184 202 207 222 217 200 184 177 186 174 303 318 356 4 29 6 360 9 334 342 266 280 169 144 157 160 143 141 149 152 151 150 154 205 188 193 207 203 206 207 204 203 201 206 217 217 209 209 207 206 205 208 206 210 209 211 210 209 213 218 222 232 235 237 246 253 259 266 273 278 284 294 297 300 304 317 323 327 335 338
175 180 176 178 182 189 200 211 218 212 181 166 174 192 51 325 318 8 342 3 338 334 345 342 306 14 120 124 151 159 156 150 147 145 142 153 153 147 182 167 152 215 213 209 211 212 212 211 211 217 222 227 224 223 221 219 218 218 218 219 219 222 223 222 226 231 233 239 241 245 253 259 264 271 272 273 289 323 332 329 315 315 325 341 334
180 173 177 177 184 190 204 214 198 185 184 191 166 146 93 288 315 302 337 334 330 300 267 22 312 21 119 147 151 152 154 152 142 140 148 153 145 161 173 177 163 189 198 221 217 214 212 216 218 219 221 227 234 234 235 230 232 230 227 227 227 229 231 231 232 236 239 241 245 250 255 265 277 274 291 311 319 323 306 313 321 326 329 330 328
179 171 172 183 187 192 211 205 190 168 203 185 149 179 217 256 266 193 273 296 300 294 35 71 293 80 99 128 150 152 148 154 144 138 138 142 148 170 178 186 184 182 207 192 214 227 216 215 221 222 224 228 231 238 238 239 238 241 235 232 229 230 233 236 238 245 245 247 249 254 260 271 279 290 299 297 300 300 307 323 328 323 329 331 327
182 178 172 179 188 202 210 199 178 172 178 188 184 191 191 221 253 230 186 246 229 262 67 105 109 73 103 117 155 150 162 146 150 142 131 147 149 168 185 194 206 212 207 196 212 223 240 221 225 228 231 237 243 241 244 244 245 237 255 295 290 297 309 296 277 267 269 260 266 269 272 265 261 291 309 302 304 313 317 321 321 325 328 321 321
182 179 178 179 183 194 203 194 172 170 170 183 199 182 206 192 212 240 185 195 167 64 76 89 97 115 127 139 150 141 145 142 152 146 137 154 161 179 195 191 202 214 198 194 200 204 219 235 230 231 232 237 245 254 256 258 272 291 306 260 259 252 249 257 264 259 270 288 288 291 286 279 288 268 276 289 298 300 311 311 310 316 315 319 319
179 177 174 177 181 187 190 198 171 170 167 182 164 170 194 180 176 221 140 199 125 116 116 138 123 131 143 156 153 161 107 133 153 118 161 167 180 188 164 198 204 217 212 199 201 197 207 222 224 228 250 244 243 249 260 270 285 261 240 251 255 255 253 247 254 259 259 255 264 267 274 279 288 280 273 279 291 302 302 304 307 311 316 322 325
177 177 174 176 181 186 191 191 181 166 164 172 195 181 195 167 199 183 332 46 47 77 94 99 61 62 85 64 44 65 8 147 151 160 155 169 195 170 194 184 201 214 207 207 205 203 204 211 212 203 204 231 241 246 251 248 237 249 250 251 253 254 245 245 258 261 252 268 268 268 277 290 283 284 277 281 291 287 288 298 310 316 320 330 350
176 171 180 178 182 178 177 194 189 182 173 192 190 195 202 198 174 78 120 31 32 48 66 107 106 46 21 28 22 13 286 206 232 192 191 196 196 197 192 179 215 216 211 201 207 210 209 219 225 215 218 214 244 251 253 258 259 250 254 256 263 252 255 249 243 251 249 250 260 263 264 260 264 259 272 271 269 266 284 302 315 314 331 18 30
178 179 179 177 175 180 183 190 189 192 189 179 171 186 173 153 146 85 27 147 168 130 178 96 36 139 131 352 14 342 183 152 277 280 239 212 203 194 195 194 208 216 207 199 212 212 211 209 223 229 233 233 235 256 268 274 280 291 276 272 272 270 261 263 255 254 253 250 253 260 263 261 257 264 263 258 254 262 270 288 305 337 33 11 19
183 180 178 184 183 179 191 186 190 182 158 167 163 176 186 181 178 166 146 19 101 181 188 94 146 79 76 83 261 79 326 359 267 248 234 231 205 205 200 206 210 200 198 200 214 215 216 209 220 234 241 238 239 239 244 239 239 254 259 259 277 288 280 271 264 255 253 254 254 255 256 257 258 258 257 251 250 245 259 251 205 330 281 8 7
187 182 185 183 181 189 179 179 191 190 177 168 172 188 187 204 194 186 133 149 331 197 184 153 127 123 117 145 211 115 14 277 223 276 228 201 203 218 198 211 210 185 172 212 223 222 227 198 218 227 233 229 227 234 236 242 253 262 268 258 228 242 279 277 264 245 246 250 250 241 242 247 245 248 242 238 241 247 228 209 198 228 256 293 350
191 187 185 187 186 187 181 183 182 194 181 180 182 189 190 197 194 176 171 163 212 249 30 144 168 176 136 90 37 73 214 243 140 268 279 182 226 212 217 207 204 197 197 224 232 232 219 217 231 229 230 221 216 219 232 245 257 268 272 268 255 197 244 264 251 247 244 248 244 229 228 228 225 224 231 228 229 219 214 209 213 226 252 282 288
195 190 190 184 188 191 186 174 182 188 191 197 185 165 173 185 208 193 196 200 159 164 291 155 180 204 198 154 163 173 200 237 114 248 317 278 226 190 212 216 199 203 215 217 217 228 216 228 219 231 228 224 218 218 222 234 242 252 265 283 265 210 225 247 260 239 244 233 231 218 213 222 220 219 226 225 218 219 218 222 225 233 245 256 265
199 192 192 189 188 190 190 187 185 187 190 180 186 193 187 195 195 187 209 164 128 184 211 220 42 254 235 282 224 203 148 127 206 94 220 306 5 167 228 235 217 210 211 220 219 215 234 227 223 228 232 223 215 221 224 231 240 236 243 248 250 250 224 243 243 265 244 239 228 208 214 214 210 217 214 216 223 224 230 229 236 240 243 251 262
196 196 193 191 188 192 191 189 189 188 180 191 199 199 181 195 196 210 186 170 177 186 214 199 167 240 190 232 340 49 109 86 151 170 156 162 279 336 16 151 258 254 239 226 212 210 217 231 230 227 231 226 215 218 224 230 238 253 250 244 236 238 227 223 229 241 234 231 223 213 213 208 206 212 216 221 229 230 226 233 235 239 244 251 259
196 196 196 194 194 193 191 194 194 194 192 194 199 185 191 187 197 202 207 206 187 197 157 203 197 208 133 328 60 47 47 33 125 99 138 125 262 208 247 355 304 274 257 248 252 230 213 218 225 222 220 224 214 215 219 227 232 232 236 239 230 228 218 209 208 213 224 232 228 219 217 215 214 218 226 230 231 232 230 232 238 242 248 254 263
197 196 199 201 200 192 193 199 201 197 195 199 195 192 194 195 200 205 204 213 205 190 198 198 197 212 195 163 156 77 57 48 102 122 53 111 167 211 198 179 217 251 232 237 230 226 221 219 228 231 223 224 216 215 214 224 229 226 234 231 225 221 218 213 213 221 228 232 234 230 224 226 229 231 235 235 236 235 240 247 252 255 259 263 267
189 198 201 202 204 198 195 201 200 199 198 191 200 203 201 199 201 202 208 210 213 206 216 203 198 204 194 168 193 175 178 181 204 192 154 156 98 236 227 204 208 232 250 221 220 223 220 216 219 230 223 221 217 211 216 223 227 229 229 231 230 221 218 216 215 224 228 229 236 235 236 233 235 238 239 242 245 248 252 257 259 263 267 271 274
189 195 204 205 203 204 200 196 199 199 203 197 200 201 202 198 199 200 213 216 212 206 213 212 196 205 206 197 205 203 199 180 192 178 170 194 179 194 199 209 303 241 285 264 240 222 219 220 221 221 223 218 215 211 216 220 229 230 228 229 229 227 223 219 217 219 226 228 229 238 238 239 240 242 244 248 253 257 261 265 269 275 280 286 292
195 198 206 201 200 204 200 197 201 201 203 202 205 196 197 195 202 208 212 213 208 203 207 217 199 194 208 206 200 197 211 227 155 179 173 141 169 174 237 147 205 252 250 161 224 225 217 228 219 224 220 218 217 211 213 216 225 229 226 229 227 226 225 223 220 219 222 226 225 230 240 245 248 251 255 258 264 275 284 284 283 283 284 286 289
193 202 200 195 202 206 201 203 199 195 199 207 210 204 198 200 200 207 213 216 205 204 213 216 209 217 193 186 204 206 225 198 190 160 158 140 163 190 197 284 201 261 322 262 303 181 263 229 224 222 222 223 221 213 214 217 224 230 225 222 232 227 226 226 224 222 222 223 223 226 230 236 240 245 250 252 253 256 260 266 272 276 280 283 285
199 201 188 197 204 204 206 204 201 198 198 203 211 209 207 205 205 210 215 209 209 206 214 209 213 214 206 203 205 211 221 209 179 200 173 186 174 179 157 194 292 351 302 289 307 229 236 259 215 216 216 216 217 216 215 215 220 222 225 223 226 229 227 229 230 230 229 228 227 226 228 232 235 241 244 247 249 253 255 258 261 265 271 276 281
199 182 196 196 201 205 207 209 202 200 199 202 205 206 207 207 213 209 219 205 208 211 218 209 219 213 212 209 200 226 214 211 200 198 193 191 190 161 163 165 192 267 329 296 282 266 219 231 263 222 214 213 217 213 215 216 220 221 222 220 221 229 229 229 231 233 235 235 234 234 232 233 235 238 241 243 244 248 250 252 251 257 264 268 271
192 192 194 200 202 202 206 211 208 205 204 205 205 209 205 210 213 213 219 208 205 214 215 213 222 214 214 206 212 221 224 209 211 209 206 201 197 181 177 179 176 192 240 257 257 236 278 197 223 247 205 212 216 212 210 215 218 212 213 217 217 223 228 228 230 233 235 237 238 239 239 238 238 238 240 241 241 242 244 246 244 247 252 255 260
190 193 193 198 202 203 206 211 212 208 210 209 207 210 206 213 217 218 217 199 209 216 217 216 222 212 216 215 212 225 228 208 216 211 202 204 199 190 193 197 172 195 200 219 262 212 243 267 208 242 216 213 211 214 209 220 218 210 210 215 216 220 226 225 227 230 234 237 239 240 242 244 245 245 244 243 242 243 242 243 242 242 243 247 250
188 189 192 199 201 204 205 211 211 213 212 214 209 210 207 216 217 222 214 201 209 218 218 210 222 207 216 221 216 228 224 225 227 219 215 203 210 192 201 192 200 205 200 195 258 276 193 226 240 231 216 217 209 211 214 221 217 211 214 215 220 221 223 227 228 230 231 235 238 240 242 244 246 247 245 242 241 240 239 238 238 238 238 239 244
196 192 193 197 201 204 206 207 211 213 212 216 210 211 208 217 217 218 215 203 215 223 223 212 216 210 215 222 222 224 224 226 236 228 219 211 203 200 199 200 211 210 190 195 221 259 206 214 231 237 221 218 207 209 221 224 220 212 218 218 220 219 223 230 232 231 232 233 236 238 240 243 244 245 243 240 239 239 237 233 232 225 228 232 234
193 196 199 200 201 205 205 206 208 211 213 213 210 209 211 218 220 219 214 206 217 226 220 222 216 213 215 223 228 227 210 218 231 234 226 216 201 212 204 198 216 204 188 202 226 260 277 227 235 243 248 201 236 212 223 224 221 219 218 223 219 217 219 224 229 231 231 232 234 235 237 240 243 244 242 240 238 238 237 234 228 222 221 222 225
189 200 204 204 204 204 207 209 209 212 215 214 208 205 212 218 223 217 217 211 219 225 216 226 218 217 215 222 233 230 207 219 226 231 232 226 211 215 220 208 220 215 196 197 233 241 267 275 263 254 270 195 238 193 210 218 230 216 221 224 218 213 219 220 225 232 229 230 231 233 235 237 240 243 243 241 238 236 236 233 227 220 216 216 214
198 202 206 207 206 204 209 211 210 212 214 216 212 208 213 215 219 220 216 214 216 220 220 225 222 214 217 222 230 225 209 219 228 231 224 228 219 220 230 212 226 225 202 205 213 241 252 265 220 250 231 222 215 233 218 225 225 210 220 224 220 218 220 218 223 231 231 229 230 230 231 233 235 238 240 239 238 235 235 232 226 220 216 211 209
204 208 207 208 207 207 212 215 212 213 213 214 214 214 215 214 218 220 218 217 218 220 222 224 222 214 219 226 231 220 212 220 230 229 225 217 215 220 228 224 222 231 215 202 216 228 241 254 261 215 229 210 248 254 249 238 230 223 222 237 235 230 226 223 225 230 231 227 229 230 230 230 231 232 234 234 234 233 231 229 223 219 215 210 209
210 207 209 206 208 209 214 216 215 214 214 212 214 217 217 217 218 220 219 218 220 222 223 225 220 218 222 225 232 218 210 222 232 230 224 219 219 214 223 226 222 226 218 209 219 219 238 243 258 244 224 229 243 248 218 228 250 243 245 235 229 230 234 232 232 234 237 231 230 231 230 229 227 227 229 229 229 229 227 223 219 214 210 206 207
209 209 209 207 209 213 216 218 217 218 215 213 214 216 217 217 220 222 224 223 223 224 225 225 223 221 224 228 229 219 215 219 230 229 225 226 221 220 223 227 227 223 224 222 213 218 224 243 242 262 234 229 252 242 208 200 222 244 251 252 255 239 231 244 237 234 226 224 223 229 233 234 231 229 229 229 229 227 225 220 214 209 205 203 205
206 209 209 210 214 216 220 219 220 219 217 216 218 218 217 216 219 222 225 227 227 226 226 225 224 224 226 228 227 222 223 225 229 229 225 226 222 225 222 224 224 222 229 229 219 221 225 238 247 241 252 237 214 249 236 198 215 218 229 244 253 235 219 226 244 238 227 231 230 224 223 219 217 220 225 228 229 228 224 218 212 207 203 201 204
208 209 210 211 216 217 221 222 224 222 219 218 220 220 217 216 217 221 223 226 228 230 230 227 224 226 227 228 228 226 226 228 228 231 219 227 220 231 229 223 221 222 231 233 228 228 235 239 243 253 241 245 241 249 316 139 230 259 227 221 239 241 229 223 228 233 229 220 230 227 230 234 236 229 229 230 230 228 224 220 213 206 203 201 202
211 212 213 215 216 220 224 224 226 223 223 222 220 218 217 218 218 222 222 224 226 230 231 231 228 228 229 230 230 230 228 230 229 228 224 218 215 228 233 215 224 223 232 234 229 226 237 242 251 250 257 247 236 234 238 223 218 233 216 195 239 246 239 237 245 226 228 223 233 226 227 219 226 226 218 226 229 223 226 217 212 209 205 201 201
214 213 215 217 219 222 225 225 225 224 225 227 223 217 214 215 217 222 223 225 225 227 230 232 233 230 232 232 235 231 228 228 228 228 228 224 221 224 230 210 222 223 228 235 231 227 232 240 242 244 249 250 239 223 236 236 234 246 237 210 228 243 242 253 266 237 212 214 232 231 233 218 218 230 215 226 230 208 214 204 210 204 203 202 202
215 214 214 218 220 223 226 227 226 225 227 228 225 217 216 216 215 219 221 226 224 225 226 229 232 233 234 234 238 236 231 231 231 229 229 227 227 230 234 230 220 216 226 230 234 225 230 237 242 238 242 251 247 233 232 243 234 229 232 230 237 241 228 236 251 257 187 199 218 233 242 218 201 224 224 225 221 207 206 208 206 205 200 199 200
215 214 216 218 222 224 227 229 231 230 230 230 225 221 216 215 214 219 223 224 224 224 226 228 233 235 236 236 235 235 234 231 229 230 230 231 231 232 234 237 237 228 222 223 229 229 225 237 241 236 238 242 248 238 240 235 240 235 231 228 225 227 234 233 242 246 222 176 205 216 244 216 194 215 230 225 217 210 210 205 201 203 202 198 197
213 215 218 218 222 223 225 228 232 232 235 231 225 222 219 216 215 217 228 226 224 227 225 227 231 233 235 237 239 234 237 229 228 230 230 230 228 232 236 241 243 238 235 234 230 230 228 233 240 246 231 240 244 242 230 233 231 240 227 229 228 229 232 236 240 248 229 177 172 215 238 226 181 212 227 228 215 210 213 205 201 201 201 198 195
213 217 217 220 222 223 224 227 231 234 233 234 223 222 221 219 216 210 228 230 232 232 229 229 230 231 231 233 235 239 235 228 224 225 229 232 233 229 234 239 243 245 239 238 238 237 239 239 241 246 241 222 240 242 235 224 225 232 228 234 226 233 234 234 233 238 130 144 181 198 256 225 192 213 228 231 209 211 211 202 199 202 199 197 193
212 214 215 219 222 223 225 225 229 233 234 230 223 219 219 217 214 205 224 229 236 238 237 235 234 234 232 231 233 238 237 229 221 219 223 226 229 236 238 238 241 244 239 235 230 228 230 234 242 247 249 237 239 245 240 222 225 230 227 232 227 229 239 254 271 236 192 184 168 175 248 232 176 212 230 222 210 213 207 204 199 202 198 193 191
215 215 217 219 222 222 223 223 226 233 234 226 220 217 214 214 206 205 216 225 232 238 240 239 237 236 235 233 235 238 237 234 223 215 217 220 226 234 240 246 250 247 242 231 228 228 226 228 234 241 245 243 238 241 238 230 231 234 240 246 248 241 243 245 248 219 220 185 187 193 235 240 185 204 228 214 194 213 205 203 203 199 194 190 189
213 213 216 216 220 221 222 221 224 230 233 226 217 213 210 205 195 209 214 225 233 237 239 238 239 238 237 234 234 239 237 236 225 214 215 211 227 231 239 248 250 252 252 231 216 225 226 227 233 237 241 244 245 247 247 238 234 230 229 239 239 224 233 242 248 233 220 157 219 210 218 239 198 196 221 203 192 206 200 202 198 197 194 190 187
212 214 214 217 218 219 221 223 221 225 231 225 210 209 205 198 193 202 211 219 232 235 240 239 239 241 240 237 236 238 240 239 225 217 211 203 222 229 236 248 255 255 255 241 237 230 222 227 232 236 242 247 248 250 251 247 241 230 224 233 239 216 234 237 246 237 151 205 224 205 212 233 210 197 217 193 178 224 207 200 189 190 191 190 189
215 213 213 217 220 222 223 225 222 222 230 225 208 207 203 199 197 207 207 217 230 235 236 241 238 241 245 242 237 236 241 241 232 222 211 200 218 222 226 243 255 259 256 245 241 249 239 232 243 244 251 249 250 248 249 246 241 233 232 240 246 226 236 238 241 225 233 238 233 193 210 227 221 218 194 148 216 240 214 199 188 186 179 179 184